SKU011 KLAS-KBFL

Flight info

Callsign SKU011
Flight time N/A
Altitude 30000
Route RADYR2 HEC J6 PMD FASTO2
Aircraft A320/M-SDE3FGHIRWY/LB1

Departure

Time N/A
Airport Harry Reid International Airport (KLAS)

Arrival

Time 2026-04-24 22:03
Airport Meadows Field (KBFL)
Time Latitude Longitude Altitude Speed Heading
2026-04-24 21:42 34.73311 -117.10654 30016 ft 469 kts 263°
2026-04-24 21:42 34.72907 -117.14591 30014 ft 469 kts 263°
2026-04-24 21:43 34.72097 -117.22456 30005 ft 469 kts 263°
2026-04-24 21:43 34.71290 -117.30267 30005 ft 469 kts 263°
2026-04-24 21:44 34.70470 -117.38113 30004 ft 468 kts 263°
2026-04-24 21:44 34.69642 -117.45965 29999 ft 465 kts 263°
2026-04-24 21:44 34.69231 -117.49853 29769 ft 463 kts 263°
2026-04-24 21:45 34.68822 -117.53728 29518 ft 462 kts 263°
2026-04-24 21:45 34.68415 -117.57604 29269 ft 463 kts 263°
2026-04-24 21:45 34.68008 -117.61480 29019 ft 462 kts 263°
2026-04-24 21:45 34.67595 -117.65361 28760 ft 463 kts 263°
2026-04-24 21:46 34.67182 -117.69227 28520 ft 463 kts 263°
2026-04-24 21:46 34.66765 -117.73117 28270 ft 463 kts 262°
2026-04-24 21:46 34.66347 -117.77000 28020 ft 464 kts 262°
2026-04-24 21:46 34.65928 -117.80886 27770 ft 464 kts 262°
2026-04-24 21:47 34.65507 -117.84773 27423 ft 463 kts 262°
2026-04-24 21:47 34.65084 -117.88656 26501 ft 464 kts 262°
2026-04-24 21:47 34.64658 -117.92537 26014 ft 465 kts 262°
2026-04-24 21:47 34.64229 -117.96440 24723 ft 469 kts 262°
2026-04-24 21:48 34.64036 -118.00407 23545 ft 471 kts 272°
2026-04-24 21:48 34.64482 -118.04319 22604 ft 466 kts 283°
2026-04-24 21:48 34.65531 -118.08017 21732 ft 461 kts 295°
2026-04-24 21:48 34.67136 -118.11358 20899 ft 456 kts 306°
2026-04-24 21:49 34.69194 -118.14252 20082 ft 450 kts 313°
2026-04-24 21:49 34.71324 -118.17013 19275 ft 446 kts 313°
2026-04-24 21:49 34.73436 -118.19756 18437 ft 442 kts 313°
2026-04-24 21:49 34.75517 -118.22464 17747 ft 435 kts 313°
2026-04-24 21:50 34.77567 -118.25134 17093 ft 428 kts 313°
2026-04-24 21:50 34.79581 -118.27762 16488 ft 421 kts 313°
2026-04-24 21:50 34.81553 -118.30337 15887 ft 413 kts 313°
2026-04-24 21:50 34.83497 -118.32878 15315 ft 407 kts 313°
2026-04-24 21:51 34.85408 -118.35380 14743 ft 400 kts 313°
2026-04-24 21:51 34.87295 -118.37847 14118 ft 396 kts 313°
2026-04-24 21:51 34.89161 -118.40290 13481 ft 392 kts 313°
2026-04-24 21:51 34.91007 -118.42714 12831 ft 389 kts 313°
2026-04-24 21:52 34.92839 -118.45120 12151 ft 386 kts 313°
2026-04-24 21:52 34.94658 -118.47508 11443 ft 383 kts 313°
2026-04-24 21:52 34.96461 -118.49877 10973 ft 375 kts 313°
2026-04-24 21:52 34.98188 -118.52152 10846 ft 358 kts 313°
2026-04-24 21:53 34.99836 -118.54323 10714 ft 337 kts 313°
2026-04-24 21:53 35.01364 -118.56336 10580 ft 311 kts 313°
2026-04-24 21:53 35.02816 -118.58197 10182 ft 298 kts 315°
2026-04-24 21:53 35.04303 -118.59927 9951 ft 294 kts 317°
2026-04-24 21:54 35.05813 -118.61605 9824 ft 293 kts 318°
2026-04-24 21:54 35.07327 -118.63264 9694 ft 291 kts 317°
2026-04-24 21:54 35.08832 -118.64913 9565 ft 290 kts 317°
2026-04-24 21:54 35.10332 -118.66567 9304 ft 292 kts 317°
2026-04-24 21:55 35.11850 -118.68256 8847 ft 294 kts 317°
2026-04-24 21:55 35.13324 -118.69903 8495 ft 288 kts 317°
2026-04-24 21:55 35.14768 -118.71526 8179 ft 272 kts 317°
2026-04-24 21:55 35.16119 -118.73048 7893 ft 259 kts 317°
2026-04-24 21:56 35.17417 -118.74514 7511 ft 250 kts 317°
2026-04-24 21:56 35.18680 -118.75934 7139 ft 243 kts 316°
2026-04-24 21:56 35.19879 -118.77345 6767 ft 237 kts 315°
2026-04-24 21:56 35.21037 -118.78732 6462 ft 229 kts 315°
2026-04-24 21:57 35.22158 -118.80077 6178 ft 222 kts 315°
2026-04-24 21:57 35.23245 -118.81380 5885 ft 216 kts 315°
2026-04-24 21:57 35.24302 -118.82648 5606 ft 210 kts 315°
2026-04-24 21:57 35.25335 -118.83887 5317 ft 206 kts 315°
2026-04-24 21:58 35.26341 -118.85095 5046 ft 200 kts 315°
2026-04-24 21:58 35.27318 -118.86267 4829 ft 195 kts 315°
2026-04-24 21:58 35.28277 -118.87419 4542 ft 192 kts 315°
2026-04-24 21:58 35.29228 -118.88561 4280 ft 191 kts 315°
2026-04-24 21:59 35.30172 -118.89696 4028 ft 190 kts 315°
2026-04-24 21:59 35.31113 -118.90828 3777 ft 189 kts 315°
2026-04-24 21:59 35.32051 -118.91955 3528 ft 189 kts 315°
2026-04-24 21:59 35.32987 -118.93081 3279 ft 188 kts 315°
2026-04-24 22:00 35.33915 -118.94198 3032 ft 187 kts 315°
2026-04-24 22:00 35.34843 -118.95315 2779 ft 186 kts 315°
2026-04-24 22:00 35.35745 -118.96402 2526 ft 177 kts 315°
2026-04-24 22:00 35.36593 -118.97423 2320 ft 164 kts 315°
2026-04-24 22:01 35.37383 -118.98375 2106 ft 154 kts 315°
2026-04-24 22:01 35.38110 -118.99250 1902 ft 143 kts 315°
2026-04-24 22:01 35.38813 -119.00098 1717 ft 140 kts 315°
2026-04-24 22:01 35.39502 -119.00929 1532 ft 138 kts 315°
2026-04-24 22:02 35.40183 -119.01751 1350 ft 137 kts 315°
2026-04-24 22:02 35.40862 -119.02569 1167 ft 137 kts 315°
2026-04-24 22:02 35.41537 -119.03385 988 ft 136 kts 315°
2026-04-24 22:02 35.42211 -119.04198 806 ft 136 kts 315°
2026-04-24 22:03 35.42885 -119.05013 636 ft 136 kts 315°
2026-04-24 22:03 35.43552 -119.05825 514 ft 130 kts 314°
2026-04-24 22:03 35.44077 -119.06466 509 ft 54 kts 315°
2026-04-24 22:03 35.44156 -119.06562 511 ft 0 kts 322°
2026-04-24 22:04 35.44222 -119.06601 513 ft 17 kts 347°
2026-04-24 22:04 35.44298 -119.06587 513 ft 10 kts 40°
2026-04-24 22:04 35.44296 -119.06506 511 ft 11 kts 122°
2026-04-24 22:04 35.44240 -119.06433 508 ft 12 kts 137°
2026-04-24 22:05 35.44177 -119.06362 507 ft 12 kts 137°
2026-04-24 22:05 35.44119 -119.06286 505 ft 13 kts 133°
2026-04-24 22:05 35.44054 -119.06200 502 ft 15 kts 133°
2026-04-24 22:05 35.43978 -119.06114 502 ft 16 kts 138°
2026-04-24 22:06 35.43896 -119.06020 501 ft 17 kts 135°
2026-04-24 22:06 35.43802 -119.05905 501 ft 20 kts 135°
2026-04-24 22:06 35.43699 -119.05776 501 ft 22 kts 134°
2026-04-24 22:06 35.43611 -119.05667 499 ft 13 kts 137°
2026-04-24 22:07 35.43559 -119.05602 491 ft 8 kts 112°
2026-04-24 22:07 35.43570 -119.05548 499 ft 6 kts 40°
2026-04-24 22:07 35.43600 -119.05528 500 ft 3 kts 19°
2026-04-24 22:07 35.43616 -119.05523 500 ft 2 kts 15°
2026-04-24 22:08 35.43667 -119.05532 501 ft 4 kts
2026-04-24 22:08 35.43683 -119.05506 501 ft 3 kts 59°
2026-04-24 22:08 35.43691 -119.05485 501 ft 2 kts 62°
2026-04-24 22:08 35.43692 -119.05483 501 ft 0 kts 62°